Theta_e
308 308 307 307 307 305 305 306 297 309 311 298 300 292 293 294 294 296 293 293 291 289 290 288 289 289 292 297 296 291 295 292 287 290 300 299 300 297 299 294 293 297 297 298
307 307 307 307 307 306 304 302 301 310 307 292 291 294 293 294 293 294 293 292 293 293 290 286 291 291 296 297 295 292 294 291 285 288 295 300 297 299 301 302 303 297 294 297
307 307 307 307 307 306 305 302 294 300 302 300 294 291 290 290 296 294 294 292 294 293 289 292 289 289 295 297 296 298 295 291 288 285 289 295 294 297 300 301 296 297 299 302
307 307 308 307 307 306 305 303 296 299 291 293 293 293 291 290 289 294 294 292 292 290 287 289 289 292 293 296 296 296 293 287 291 291 292 294 295 297 298 298 301 297 301 302
306 307 307 307 307 306 305 297 295 298 294 296 294 293 291 290 291 292 291 290 291 292 289 290 288 291 292 291 295 294 296 288 291 289 292 292 291 297 299 300 301 302 303 304
306 306 307 307 307 307 302 304 304 298 294 294 292 292 292 291 294 295 295 294 293 291 293 296 296 297 296 295 293 292 292 291 288 285 291 290 289 297 299 301 304 304 301 308
306 306 307 307 307 307 303 302 303 295 290 293 292 294 293 292 293 292 296 296 294 298 302 301 300 298 297 296 295 296 291 291 290 287 289 281 297 304 303 302 306 307 308 310
305 306 306 307 307 308 305 305 302 297 290 293 293 294 293 295 296 294 295 297 299 302 299 292 290 291 292 293 295 295 296 292 288 286 286 290 296 301 301 301 302 307 307 309
304 305 306 306 307 307 306 306 307 300 293 293 297 294 294 292 292 294 295 301 304 302 294 291 285 283 287 288 291 298 296 296 291 288 283 286 297 303 307 307 298 308 310 310
306 305 305 305 306 307 306 305 312 303 294 299 298 295 293 296 295 291 295 296 296 301 293 286 286 285 289 286 287 289 290 292 287 286 285 290 299 300 308 295 297 310 311 311
306 306 305 305 306 306 305 304 310 305 297 299 301 302 297 298 297 290 294 292 294 294 288 287 287 287 288 288 289 289 288 288 288 290 286 284 299 301 297 301 310 310 310 311
306 306 307 306 306 306 306 300 309 311 300 299 305 305 306 305 302 298 293 291 294 294 291 291 290 287 289 288 285 295 287 290 288 291 287 295 301 301 304 306 307 309 310 312
306 306 307 307 306 305 305 301 305 304 298 300 303 302 307 310 308 309 293 294 296 296 298 292 289 286 292 286 287 290 293 296 291 292 294 296 300 304 305 307 307 310 312 313
305 306 307 307 306 306 305 301 307 304 299 293 299 310 305 311 310 307 305 300 299 298 297 293 292 290 298 292 292 291 294 296 292 292 295 299 300 302 303 306 308 309 311 313
306 306 307 307 305 305 305 305 308 308 300 294 297 304 309 310 309 306 306 301 296 295 295 294 295 298 297 299 296 292 297 294 291 290 298 298 298 302 305 305 307 309 309 311
306 306 306 306 305 305 305 301 309 310 308 297 292 305 305 307 308 306 306 305 300 298 298 298 299 303 298 293 290 296 298 300 301 297 302 302 303 305 305 305 308 309 310 312
305 305 306 305 305 306 305 302 305 309 310 298 294 297 306 306 307 306 306 308 303 303 300 300 299 300 302 294 290 295 298 300 301 302 303 300 302 301 305 307 308 310 311 312
306 306 306 305 306 306 306 310 306 309 306 302 292 295 299 308 302 299 306 301 305 303 300 300 299 300 298 291 294 298 299 301 301 303 303 304 305 306 306 307 308 307 309 310
305 305 305 307 306 305 304 306 306 310 305 295 295 294 294 306 301 303 302 303 298 304 298 299 300 296 292 295 297 298 299 298 299 302 302 303 304 303 304 305 306 305 307 309
305 305 305 302 304 306 307 304 300 298 299 300 295 301 298 301 300 299 299 301 298 293 298 301 297 294 300 301 302 302 302 303 303 299 299 302 302 303 304 305 306 307 307 308
306 302 301 305 307 305 303 297 295 297 294 299 300 300 297 305 297 296 299 296 297 292 296 295 294 293 297 301 301 304 304 304 304 304 304 305 304 304 304 304 305 307 308 308
300 299 301 303 299 298 293 294 298 297 295 299 299 299 302 303 304 298 298 293 295 290 300 295 291 296 300 300 301 303 304 303 303 305 304 304 304 304 304 304 303 304 306 308
302 297 293 294 296 290 290 288 293 294 299 300 300 298 302 302 301 297 296 289 289 299 294 292 296 300 301 302 302 303 304 303 303 304 304 304 304 305 305 303 304 305 307 307
297 293 288 291 291 294 296 297 297 301 301 299 300 298 299 301 297 295 289 294 296 288 288 289 298 299 302 302 303 302 302 303 303 304 305 304 304 304 305 305 304 303 303 304
296 297 288 293 299 301 302 302 301 302 303 300 299 299 300 298 295 295 293 289 287 290 290 298 302 304 304 304 304 303 302 304 304 305 304 304 304 304 304 305 304 304 304 304
297 297 296 300 300 300 301 301 300 303 302 303 301 296 294 294 295 291 289 287 286 293 301 303 305 304 305 306 305 306 305 304 304 305 305 304 304 304 304 305 305 305 304 303
293 295 300 300 299 299 301 304 303 305 301 296 297 293 292 297 293 291 296 292 297 302 302 304 306 304 304 305 306 306 306 306 306 305 305 305 305 306 304 304 304 304 304 304
Wind_Speed
20 20 21 22 23 24 14 6 6 7 2 3 4 10 21 19 16 17 14 15 20 10 22 19 20 14 8 8 10 10 17 7 17 23 27 25 29 25 23 16 24 16 14 15
19 20 21 22 22 18 9 7 9 5 5 3 8 17 18 20 18 16 20 17 18 9 15 9 13 9 6 5 6 2 6 7 10 21 19 21 27 28 25 21 13 19 17 13
19 19 21 21 22 18 10 7 6 2 5 4 9 17 16 18 19 12 15 18 16 15 15 17 10 13 5 8 11 10 3 7 17 11 10 18 13 30 31 24 20 17 19 2
19 19 20 21 22 20 9 5 6 6 8 11 11 13 18 19 17 13 18 10 16 18 16 20 17 10 14 8 1 3 3 8 18 19 10 15 23 28 31 28 24 22 21 11
19 19 19 19 21 24 6 7 6 8 14 14 13 12 14 19 20 18 15 13 18 19 18 17 18 19 14 9 8 6 8 5 19 17 12 15 25 28 24 30 27 27 26 15
19 18 18 18 17 14 5 5 7 2 10 14 12 7 18 19 18 11 17 18 19 16 15 20 21 21 19 19 19 14 12 8 8 12 7 9 19 23 22 27 23 27 18 10
19 18 17 17 15 12 6 8 8 4 11 13 14 15 13 21 23 16 20 13 12 13 21 21 21 21 21 19 19 17 14 11 4 4 11 6 10 14 22 23 23 21 8 13
18 18 17 16 15 12 8 8 5 2 8 15 14 20 17 17 18 18 18 15 15 17 16 14 11 10 12 18 22 17 11 8 5 2 4 16 12 13 14 12 8 20 18 19
19 18 17 16 16 14 8 9 5 3 5 6 22 16 19 12 14 13 18 17 19 8 4 7 8 3 4 4 9 12 10 6 4 1 3 6 8 21 29 17 12 17 15 16
21 20 19 18 16 15 9 8 8 4 5 14 16 15 11 9 8 8 17 17 13 8 6 3 4 5 4 6 7 6 2 2 4 3 1 8 19 29 25 4 4 9 15 13
20 21 20 19 17 15 10 9 10 5 5 16 20 14 17 15 6 4 8 10 8 5 7 5 5 5 5 4 4 5 4 5 1 3 4 5 19 14 11 7 5 11 12 11
20 21 20 19 18 15 12 8 6 3 3 15 23 24 21 17 8 4 1 4 10 3 4 5 5 3 4 6 3 8 4 5 4 6 3 6 14 7 12 11 11 13 12 11
20 21 21 19 18 17 11 10 7 3 4 13 9 7 10 6 8 8 3 3 2 4 3 3 3 4 3 4 4 4 6 12 4 1 5 10 12 13 12 16 15 16 11 11
22 20 21 19 18 16 13 9 8 3 4 5 8 6 2 8 9 9 6 2 2 4 4 3 5 4 6 2 1 3 3 5 9 4 8 9 9 16 16 9 12 13 13 11
23 22 22 20 20 18 13 10 9 7 4 6 12 20 14 8 10 11 10 6 3 3 4 4 5 3 4 3 2 3 4 5 2 1 7 5 8 10 13 9 7 7 8 10
24 26 24 23 19 15 8 4 5 9 6 4 6 7 5 5 8 9 11 8 6 5 4 6 6 5 5 4 2 10 11 11 11 6 8 8 7 7 8 10 9 6 8 7
23 25 23 22 18 7 6 4 1 2 5 3 6 5 3 9 6 4 4 9 7 6 5 3 4 5 5 4 4 13 10 10 11 11 12 11 8 7 10 9 9 10 6 7
24 24 21 21 12 5 7 3 5 4 4 3 4 7 2 3 2 3 3 5 5 5 4 3 3 2 4 2 6 10 11 10 7 12 7 9 9 13 11 9 8 10 9 8
27 25 26 6 4 2 2 0 2 5 3 3 5 7 3 6 4 2 3 3 3 2 3 1 2 3 3 3 6 6 6 1 8 10 6 8 11 11 11 13 14 10 10 9
30 12 5 3 3 7 7 4 4 3 3 5 7 11 6 3 1 1 3 2 3 2 3 5 2 1 4 5 4 4 10 7 4 11 11 9 10 9 9 13 13 15 15 15
5 4 3 7 4 4 4 3 5 6 6 7 8 12 7 1 3 1 3 3 4 2 3 3 3 3 2 5 4 3 6 8 3 2 6 7 9 10 8 9 12 14 16 14
8 8 8 5 4 5 3 5 6 8 7 4 9 5 5 4 3 1 2 2 5 3 8 2 3 5 7 4 4 6 8 8 7 7 5 5 8 10 9 9 10 10 11 12
2 3 3 3 5 6 7 6 5 4 5 4 3 4 4 5 3 1 1 2 5 8 4 1 3 7 6 5 4 8 7 6 5 10 13 7 12 10 10 8 10 11 12 13
4 4 5 7 7 7 7 8 7 1 1 4 2 2 3 1 3 2 3 4 1 3 3 2 6 2 7 4 4 4 6 4 10 11 14 12 8 14 11 13 9 7 9 12
5 4 6 8 10 10 8 7 8 3 1 5 4 2 2 2 3 3 0 3 3 4 4 1 6 7 9 6 4 2 4 8 9 9 10 9 7 8 11 9 10 11 12 15
6 8 9 10 10 8 8 10 7 6 5 3 3 3 2 5 3 4 5 3 5 3 3 4 5 4 4 5 4 3 3 5 6 8 9 10 11 10 6 11 9 11 14 14
6 7 9 12 12 11 11 7 8 3 6 6 2 4 6 3 3 5 5 5 4 5 6 1 6 3 1 1 3 8 5 6 4 5 7 9 8 11 8 9 10 11 12 13
Wind_Direction
337 333 333 336 338 336 317 296 275 121 237 284 256 293 333 319 319 325 313 315 319 3 306 305 294 239 13 238 328 304 297 283 258 268 274 217 232 224 231 218 218 237 248 248
337 334 333 336 337 346 321 287 289 135 239 328 321 314 319 320 334 344 326 323 310 318 298 319 320 342 173 228 275 292 346 245 260 257 266 258 229 221 234 238 241 217 236 241
337 337 335 337 334 337 315 282 307 37 343 347 304 321 317 317 328 328 317 309 312 310 326 287 268 336 274 239 296 267 356 260 265 254 320 339 288 211 230 226 211 227 228 188
338 337 336 339 335 330 306 254 342 11 299 326 313 305 291 314 335 341 329 316 325 325 310 310 322 308 312 315 172 233 206 268 287 256 255 304 301 285 224 224 202 223 236 159
339 336 334 338 339 331 253 335 339 348 299 306 306 314 319 322 329 327 314 319 317 312 309 310 315 309 297 288 270 242 217 282 300 281 212 272 287 276 266 220 199 221 240 158
335 335 334 336 343 341 304 359 298 311 289 303 327 320 325 313 330 304 306 306 313 305 310 311 305 294 285 281 277 262 279 301 320 248 193 323 272 236 241 211 203 214 227 161
333 333 334 333 339 343 295 292 299 285 293 310 326 336 317 320 322 315 314 327 304 308 321 308 292 270 258 248 252 256 261 284 267 8 60 262 245 246 251 206 196 209 163 164
329 330 329 330 331 333 302 295 286 273 287 311 308 335 333 319 319 314 312 326 338 328 324 314 310 315 239 231 230 229 225 256 274 204 200 298 320 0 337 267 79 14 40 73
327 327 326 324 325 327 303 285 254 254 288 302 326 319 311 324 323 320 325 325 337 330 311 318 308 284 283 309 316 253 172 222 232 62 255 226 19 350 319 298 93 11 39 50
326 325 325 324 321 319 309 284 279 273 264 271 320 310 316 320 308 290 308 344 316 34 327 305 317 351 308 354 316 330 137 229 263 275 219 293 340 329 306 354 76 38 47 42
323 322 322 321 318 315 312 288 292 248 258 290 284 320 299 301 302 289 331 320 12 14 354 341 352 329 354 301 318 360 332 333 345 242 224 341 325 336 50 313 316 45 53 44
317 320 320 319 315 310 305 279 282 233 239 276 287 278 276 276 288 301 58 295 299 344 325 8 309 313 295 314 23 358 10 22 341 4 31 287 298 6 17 352 25 38 34 32
315 315 314 314 312 310 293 282 287 254 270 281 280 222 230 217 221 154 176 229 312 302 1 309 285 288 290 331 39 342 344 6 24 5 358 325 319 5 18 16 7 0 17 22
315 313 312 314 312 307 298 270 254 218 279 281 302 129 170 202 137 173 199 204 245 278 272 242 249 241 207 327 87 37 8 350 345 1 1 351 358 338 335 6 1 355 357 359
312 313 315 314 312 306 286 257 247 209 255 303 308 302 269 184 171 182 194 198 237 269 264 225 262 269 354 102 234 47 358 13 14 45 290 303 317 299 314 347 345 350 342 341
312 313 313 313 310 310 267 257 183 220 211 293 296 333 195 213 213 212 207 207 210 247 263 289 301 15 328 23 44 11 8 359 339 316 327 277 290 302 320 313 314 358 310 339
308 308 309 309 305 265 262 16 257 184 153 248 271 274 191 178 218 219 222 207 230 250 290 275 302 332 350 35 357 345 337 348 341 329 347 342 342 309 306 328 317 325 330 3
302 301 310 312 310 234 264 169 246 258 223 230 268 267 189 169 229 266 219 201 190 219 242 269 320 354 23 88 337 314 320 357 341 343 310 297 324 355 358 346 331 326 340 5
297 301 302 275 230 195 104 180 260 237 273 279 241 259 276 168 239 242 252 233 232 272 254 234 61 11 39 316 330 344 2 194 306 331 334 353 5 358 5 353 344 340 337 342
298 287 205 173 30 132 155 178 178 193 218 230 257 268 259 272 129 311 280 273 254 230 236 100 58 246 207 232 327 339 345 301 357 15 10 11 12 12 356 2 356 357 2 352
322 327 342 350 169 252 201 227 213 173 219 213 235 244 237 165 328 144 266 292 291 250 215 199 138 152 94 114 118 172 46 44 69 29 16 19 9 4 17 16 359 355 354 334
320 298 295 290 267 234 227 234 212 201 230 159 246 152 255 110 74 33 291 278 309 264 333 184 170 126 126 85 71 84 77 41 5 79 86 48 53 41 25 30 10 354 354 345
222 198 236 234 230 230 221 211 234 222 196 236 188 201 176 165 116 138 297 279 252 337 284 276 124 156 117 97 56 35 41 32 356 67 65 37 52 57 46 36 26 9 5 357
242 222 236 227 212 229 214 248 265 86 3 309 263 253 151 53 138 114 252 240 251 277 253 186 127 241 129 116 68 41 349 18 26 58 57 17 51 44 48 59 52 29 18 23
264 225 243 234 238 272 281 245 268 278 217 279 303 312 259 159 173 213 271 268 261 227 244 155 167 140 141 158 140 77 347 32 10 25 57 51 28 60 50 41 45 35 32 26
251 233 259 271 277 270 248 239 238 252 257 215 254 257 223 215 193 175 204 242 230 252 256 279 144 99 78 120 150 116 4 28 23 358 35 35 34 48 46 56 21 34 36 41
246 249 250 262 280 291 293 296 302 226 224 219 195 233 226 191 218 194 177 208 238 234 238 37 346 100 78 131 178 165 177 105 81 42 16 25 29 56 20 40 43 40 32 56